Regional Weather Roundup
Issued by NWS Green Bay, WI

Home | Current Version | Previous Version | Graphics & Text | Print | Product List | Glossary Off
Versions: 1 2 3 4 5 6 7 8 9 10 11 12 13 14 15 16 17 18 19 20 21 22 23 24 25 26 27 28 29 30 31 32 33 34 35 36 37 38 39 40 41 42 43 44 45 46 47 48 49 50

758
ASUS43 KGRB 210811
RWRGRB

NORTH-CENTRAL AND NORTHEAST WISCONSIN REGIONAL WEATHER ROUNDUP
NATIONAL WEATHER SERVICE GREEN BAY WI
300 AM CDT MON MAY 21 2018

WIZ005-009-010>012-018-019-210900-
NORTH CENTRAL WISCONSIN

CITY           SKY/WX    TMP DP  RH WIND       PRES   REMARKS
IRONWOOD       FAIR      46  35  65 VRB6      30.19S
MANITOWISH WTR NOT AVBL
ARBOR VITAE    FAIR      42  37  83 CALM      30.21S
EAGLE RIVER    FAIR      35  34  96 CALM      30.21S
LAND O LAKES   FAIR      35  34  97 CALM      30.23S
RHINELANDER    FAIR      39  33  79 CALM      30.23R
PHILLIPS       FAIR      37  34  86 CALM      30.21R
ANTIGO         FAIR      37  32  82 NE3       30.22R
TOMAHAWK       FAIR      34  32  93 CALM      30.22R
MERRILL        FAIR      37  34  90 NE5       30.22S
$$

WIZ013-073-210900-
NORTHEAST WISCONSIN

CITY           SKY/WX    TMP DP  RH WIND       PRES   REMARKS
IRON MOUNTAIN  FAIR      37  33  85 CALM      30.21S
MARINETTE      NOT AVBL
OCONTO         FAIR      35  34  96 CALM      30.22R
$$

WIZ017-030-035>037-045-210900-
CENTRAL WISCONSIN

CITY           SKY/WX    TMP DP  RH WIND       PRES   REMARKS
MEDFORD        FAIR      38  34  87 E3        30.20S
WAUSAU         FAIR      44  34  67 CALM      30.19S
MOSINEE        FAIR      46  32  57 NE3       30.21S
MARSHFIELD     FAIR      46  36  68 E6        30.18S
WISC RAPIDS    MOCLDY    44  35  70 CALM      30.20S
STEVENS POINT  NOT AVBL
WAUPACA        FAIR      42  39  88 CALM      30.20F
SHAWANO        FAIR      42  38  87 CALM      30.21S
CLINTONVILLE   FAIR      42  36  78 NE3       30.21S
WAUTOMA        FAIR      42  40  92 CALM        N/A
$$

WIZ038-039-048-051-210900-
FOX VALLEY

CITY           SKY/WX    TMP DP  RH WIND       PRES   REMARKS
NWS GREEN BAY  FAIR      40  36  86 CALM      30.21S
APPLETON       FAIR      45  27  49 NE5       30.18F
OSHKOSH        FAIR      48  35  60 E3        30.18F
FOND DU LAC    FAIR      45  35  68 NE3       30.19S
$$

WIZ022-050-052-210900-
EAST CENTRAL WISCONSIN

CITY           SKY/WX    TMP DP  RH WIND       PRES   REMARKS
EPHRAIM        FAIR      44  28  53 CALM      30.21S
WASHINGTON ISL FAIR      32  31  95 CALM      30.22S
STURGEON BAY   FAIR      41  32  70 CALM      30.22S
MANITOWOC      FAIR      40  35  83 N5        30.21S
SHEBOYGAN      FAIR      41  33  73 NE5       30.19S
$$

LMZ563-521-522-541>543-210900-
LAKESHORE

STATION/POSITION TIME  TEMP    WIND        PRES    VSBY  WAVE
                       AIR SEA DIR/SP/G                  HT/PER
                 (UTC) (F)     (DEG/KT/KT) (MB)    (MI)  (FT/S)
SHEBOYGAN LKSHOR 0800   47      10/ 10/ 10 1022.7F
KEWAUNEE LKSHORE 0742   47      40/  5/  7 1022.3F
NORTHPORT PIER   0740   43                 1023.4S
SISTER BAY LKSHO 0757   42        CALM       N/A
MENOMINEE LKSHOR 0736   48      CALM  /  2 1022.8F
$$




USA.gov is the U.S. government's official web portal to all federal, state and local government web resources and services.